[[{"header":{"parameterUnit":"m.s-1","parameterCategory":1,"la1":30.2991,"la2":30.254,"lo1":-89.0895,"lo2":-89.0444,"dy":0.0017,"dx":0.0017,"nx":28,"ny":28,"refTime":"2024-07-05T09:00:00:Z","depth":0,"parameterNumber":2,"parameterNumberName":"U-component_of_WINDS"},"data":[0,0,0,0,0,0,0,0,0,0,0,0,0,0,0,0,0,0,0,0,0,0,0,0,0,0,0,0,0,0,0,0,0,0,0,0,0,0,0,0,0,0,0,0,0,0,0,0,0,0,0,0,0,0,0,0,0,0,0.7225,0.7227,0,0.7383,0.7385,0.7386,0.7452,0.7452,0.7451,0.7451,0.7617,0.7622,0.7626,0,0,0,0,0,0,0,0,0,0,0,0,0,0.6984,0.6988,0.7225,0.7227,0.7229,0.7382,0.7385,0.7387,0.7452,0.7451,0.7451,0.7451,0.7616,0.7621,0.7627,0,0,0,0,0,0,0,0,0,0,0,0,0,0.711,0.699,0.7225,0.728,0.7286,0.7382,0.7385,0.7387,0.7452,0.7451,0.7451,0.7451,0.7614,0.7621,0.7628,0.7682,0,0,0.7649,0.7652,0,0,0,0,0,0,0,0,0.7103,0.7119,0.727,0.7276,0.7284,0.7397,0.7361,0.7486,0.7452,0.7389,0.7451,0.745,0.7545,0.7557,0.7588,0.7689,0.7697,0.765,0.7654,0.7657,0.7659,0,0,0,0,0,0,0,0.7094,0.7113,0.7288,0.7272,0.728,0.7298,0.7315,0.7385,0.7468,0.7395,0.74,0.7417,0.7548,0.7581,0.7593,0.7699,0.765,0.7656,0.7661,0.7663,0.7853,0.7853,0,0,0,0,0,0,0.7076,0.7105,0.7283,0.7292,0.719,0.7303,0.7322,0.7361,0.7467,0.7483,0.7418,0.742,0.7569,0.7584,0.7599,0.7669,0.7657,0.7664,0.7668,0.7852,0.7853,0.7854,0,0,0,0,0,0,0.707,0.7091,0.7276,0.72,0.7225,0.7307,0.7351,0.7365,0.7397,0.7485,0.75,0.7436,0.7569,0.7589,0.766,0.7676,0.7667,0.7674,0.7851,0.7852,0.7853,0.7809,0,0,0,0,0,0,0.7063,0.7089,0.7109,0.72,0.7229,0.7334,0.7352,0.7368,0.7409,0.7413,0.7506,0.7521,0.7571,0.7649,0.7667,0.7685,0.7679,0.785,0.7852,0.7853,0.781,0.7809,0.7808,0,0,0,0,0,0.7054,0.7091,0.711,0.7131,0.7256,0.7334,0.7351,0.7406,0.741,0.7432,0.7488,0.7518,0.7671,0.7656,0.7677,0.7697,0.7849,0.7851,0.7853,0.781,0.7809,0.7808,0,0,0,0,0,0,0.7002,0.7104,0.7126,0.7193,0.7254,0.7345,0.7374,0.7403,0.7466,0.7468,0.7536,0.7556,0.7622,0.7667,0.7648,0.7755,0.7763,0.7769,0.7723,0.7723,0.7722,0.771,0.7685,0,0,0,0,0,0.6998,0.7051,0.7139,0.719,0.7219,0.7291,0.7328,0.7365,0.7432,0.7458,0.752,0.7585,0.7648,0.7688,0.775,0.7817,0.7838,0.7841,0.784,0.7839,0.7843,0.7882,0.7884,0.7859,0.7859,0.7859,0,0,0.699,0.7053,0.7083,0.7181,0.7233,0.7288,0.7313,0.7371,0.7413,0.7468,0.7539,0.7586,0.7663,0.7732,0.7765,0.7771,0.7855,0.7841,0.7839,0.7845,0.7884,0.7886,0.7888,0.7861,0.786,0.786,0,0,0.7005,0.7058,0.7106,0.7157,0.7235,0.7282,0.7294,0.738,0.7413,0.7485,0.7527,0.7579,0.7686,0.7739,0.778,0.7814,0.7844,0.7833,0.7829,0.7865,0.7867,0.7869,0.7882,0.7886,0.7837,0.7837,0.7837,0,0.6987,0.7071,0.7128,0.7183,0.7225,0.7275,0.7325,0.7373,0.7467,0.7496,0.7501,0.7635,0.7691,0.7773,0.7781,0.7813,0.7829,0.7823,0.7862,0.7865,0.7868,0.788,0.7885,0.7835,0.7835,0.7836,0.7836,0,0.7045,0.7102,0.7132,0.722,0.7266,0.7318,0.7384,0.7423,0.7456,0.7503,0.7576,0.7644,0.7721,0.7744,0.7778,0.7831,0.7832,0.7849,0.7858,0.7867,0.788,0.7886,0.7833,0.7833,0.7834,0.7834,0,0,0.7031,0.7149,0.7159,0.72,0.7289,0.7335,0.739,0.7464,0.7497,0.756,0.7609,0.7697,0.7713,0.776,0.78,0.7832,0.7855,0.7845,0.7848,0.7845,0.7918,0.7905,0.7909,0.7875,0.7876,0.7877,0.7912,0,0.7058,0.7157,0.721,0.7287,0.7341,0.739,0.7438,0.7498,0.7544,0.7598,0.7649,0.7711,0.7727,0.7755,0.7789,0.7845,0.7871,0.7843,0.7922,0.7924,0.7901,0.7916,0.7903,0.7932,0.7917,0.7918,0.7919,0,0.7103,0.7164,0.7246,0.7329,0.7354,0.7395,0.7467,0.7518,0.7588,0.7619,0.767,0.7709,0.777,0.7774,0.7859,0.7839,0.7875,0.7907,0.791,0.7919,0.7922,0.7927,0.7943,0.7947,0.7927,0.7927,0.7926,0,0.7085,0.7188,0.7251,0.7284,0.7382,0.741,0.7452,0.7522,0.7563,0.7626,0.7653,0.7723,0.7762,0.7816,0.7873,0.7871,0.7953,0.7962,0.7982,0.798,0.7997,0.7995,0.8019,0.8019,0.8019,0.8019,0.8019,0,0.711,0.7158,0.7244,0.7282,0.7338,0.7398,0.7452,0.7499,0.756,0.7609,0.7656,0.7701,0.7775,0.7829,0.7875,0.7939,0.7956,0.7984,0.7995,0.798,0.7976,0.8004,0.8004,0.802,0.802,0.802,0.802,0,0.71,0.7159,0.723,0.7316,0.7339,0.7376,0.7451,0.7491,0.7538,0.76,0.7618,0.7693,0.776,0.7822,0.7912,0.7943,0.8007,0.8022,0.7983,0.799,0.8006,0.8003,0.8049,0.8058,0.8051,0.8051,0.8051,0,0.7112,0.715,0.724,0.7275,0.7316,0.7373,0.7415,0.7476,0.7517,0.7599,0.7629,0.7699,0.7758,0.7863,0.7927,0.7996,0.8013,0.8024,0.8024,0.8007,0.8014,0.8011,0.8015,0.8023,0.8023,0.8023,0.8022,0,0.7127,0.7154,0.7211,0.7279,0.7327,0.7384,0.7442,0.7469,0.7541,0.7586,0.7654,0.7699,0.779,0.7859,0.7935,0.7981,0.8014,0.8022,0.803,0.8015,0.799,0.8004,0.798,0.8021,0.8021,0.8021,0.8021,0.8021,0.7128,0.7164,0.7233,0.7296,0.7345,0.7399,0.744,0.7492,0.7549,0.7627,0.766,0.7729,0.7798,0.7904,0.7948,0.8004,0.8011,0.8023,0.8027,0.8029,0.8025,0.7981,0.8018,0.8018,0.8018,0.8019,0.8019,0,0.7146,0.7192,0.7249,0.7328,0.7378,0.7403,0.7469,0.7509,0.7568,0.7629,0.7686,0.7764,0.7832,0.79,0.7971,0.8003,0.802,0.8019,0.8018,0.8028,0.8015,0.8,0.8004,0.8004,0.8004,0.8004,0.8004,0.8004,0.7161,0.7223,0.7258,0.7346,0.7393,0.746,0.7495,0.7545,0.7594,0.7678,0.7734,0.7777,0.7842,0.7918,0.7981,0.7999,0.8023,0.8019,0.8041,0.8028,0.8029,0.8029,0.8016,0.8023,0.8023,0.805,0.805,0.8051]},{"header":{"parameterUnit":"m.s-1","parameterCategory":1,"la1":30.2991,"la2":30.254,"lo1":-89.0895,"lo2":-89.0444,"dy":0.0017,"dx":0.0017,"nx":28,"ny":28,"refTime":"2024-07-05T09:00:00:Z","depth":0,"parameterNumber":3,"parameterNumberName":"V-component_of_WINDS"},"data":[0,0,0,0,0,0,0,0,0,0,0,0,0,0,0,0,0,0,0,0,0,0,0,0,0,0,0,0,0,0,0,0,0,0,0,0,0,0,0,0,0,0,0,0,0,0,0,0,0,0,0,0,0,0,0,0,0,0,3.9169,3.9169,0,3.914,3.914,3.914,3.9119,3.9119,3.9119,3.9118,3.9087,3.9086,3.9085,0,0,0,0,0,0,0,0,0,0,0,0,0,3.9205,3.9204,3.9169,3.9169,3.9169,3.914,3.914,3.9139,3.9119,3.9119,3.9118,3.9118,3.9087,3.9086,3.9085,0,0,0,0,0,0,0,0,0,0,0,0,0,3.9184,3.9204,3.917,3.9155,3.9154,3.914,3.914,3.9139,3.9119,3.9119,3.9118,3.9118,3.9087,3.9086,3.9085,3.9083,0,0,3.9082,3.9081,0,0,0,0,0,0,0,0,3.9185,3.9182,3.9158,3.9156,3.9154,3.9133,3.9141,3.912,3.9119,3.9132,3.9118,3.9118,3.9102,3.91,3.9095,3.9082,3.9081,3.9082,3.9081,3.9081,3.908,0,0,0,0,0,0,0,3.9186,3.9184,3.9158,3.9157,3.9155,3.9149,3.9146,3.9137,3.9119,3.9131,3.9129,3.9126,3.9101,3.9096,3.9094,3.908,3.9082,3.9081,3.908,3.908,3.9062,3.9062,0,0,0,0,0,0,3.919,3.9185,3.9159,3.9157,3.9169,3.9149,3.9145,3.914,3.9119,3.9115,3.9126,3.9125,3.9098,3.9095,3.9093,3.9088,3.9081,3.908,3.9079,3.9062,3.9062,3.9062,0,0,0,0,0,0,3.9191,3.9188,3.916,3.917,3.9166,3.9148,3.9143,3.914,3.9134,3.9115,3.9112,3.9125,3.9097,3.9094,3.9085,3.9086,3.9079,3.9078,3.9061,3.9062,3.9062,3.9079,0,0,0,0,0,0,3.9192,3.9189,3.9189,3.9171,3.9166,3.9154,3.9143,3.9139,3.9133,3.9131,3.9113,3.9109,3.9097,3.9087,3.9084,3.9085,3.9077,3.9061,3.9061,3.9062,3.9078,3.908,3.9081,0,0,0,0,0,3.9194,3.9195,3.9189,3.9186,3.9166,3.9154,3.9152,3.9138,3.9133,3.9132,3.912,3.911,3.9087,3.9086,3.9083,3.9083,3.9061,3.9061,3.9062,3.9078,3.908,3.9081,0,0,0,0,0,0,3.9213,3.9192,3.9185,3.9181,3.917,3.9151,3.915,3.9141,3.913,3.9129,3.9111,3.9107,3.91,3.9091,3.9091,3.9079,3.9073,3.9072,3.9086,3.9087,3.9089,3.9091,3.9077,0,0,0,0,0,3.9217,3.9211,3.9192,3.919,3.9185,3.9168,3.9163,3.9153,3.914,3.9135,3.9122,3.911,3.9099,3.9093,3.9082,3.9077,3.9071,3.9075,3.9077,3.9078,3.9078,3.9072,3.9073,3.9063,3.9063,3.9063,0,0,3.9225,3.9213,3.921,3.9194,3.9184,3.9176,3.9164,3.9157,3.9151,3.9134,3.9125,3.9115,3.9099,3.9092,3.9087,3.9084,3.9079,3.9078,3.9079,3.9078,3.9072,3.9073,3.9074,3.9063,3.9063,3.9063,0,0,3.9235,3.9226,3.9222,3.9212,3.9197,3.9186,3.9185,3.9168,3.916,3.9151,3.9137,3.9129,3.9112,3.9101,3.9093,3.9097,3.9087,3.9094,3.9102,3.9097,3.9097,3.9098,3.9098,3.9098,3.9094,3.9094,3.9094,0,3.9247,3.9236,3.9221,3.9215,3.9207,3.9192,3.9187,3.9178,3.916,3.9155,3.9151,3.9128,3.9116,3.9105,3.9106,3.91,3.9098,3.9097,3.9099,3.9099,3.9099,3.9099,3.9099,3.9095,3.9095,3.9095,3.9095,0,3.925,3.9242,3.9241,3.9224,3.9216,3.9211,3.9194,3.9188,3.9179,3.9167,3.9157,3.9142,3.9128,3.9124,3.9115,3.9111,3.9109,3.9102,3.9095,3.9101,3.9101,3.9101,3.9097,3.9096,3.9096,3.9096,0,0,3.9272,3.9247,3.9246,3.9238,3.922,3.9213,3.9206,3.9192,3.9186,3.9174,3.9167,3.9152,3.9145,3.9136,3.9125,3.912,3.9122,3.9113,3.9113,3.9115,3.9115,3.912,3.912,3.9116,3.9115,3.9115,3.9116,0,3.9279,3.9266,3.9252,3.9244,3.9235,3.922,3.9213,3.92,3.9189,3.918,3.9167,3.9156,3.9148,3.9142,3.9137,3.9123,3.9122,3.9123,3.9107,3.9107,3.9111,3.912,3.9126,3.9127,3.9116,3.9116,3.9116,0,3.9285,3.9274,3.9264,3.9246,3.9242,3.9236,3.9221,3.9213,3.9197,3.9189,3.9179,3.9167,3.9157,3.9151,3.9135,3.9136,3.9129,3.9121,3.912,3.9118,3.9112,3.9117,3.9128,3.9128,3.9116,3.9116,3.9116,0,3.9301,3.9283,3.9275,3.9268,3.9246,3.9243,3.9233,3.9218,3.921,3.9196,3.9191,3.9176,3.9168,3.9156,3.914,3.9137,3.9126,3.9119,3.9118,3.9118,3.9116,3.9117,3.9125,3.9112,3.9112,3.9112,3.9112,0,3.9309,3.9304,3.9282,3.9277,3.9269,3.9253,3.9246,3.9235,3.9221,3.9212,3.9198,3.9189,3.9169,3.9158,3.9145,3.9133,3.913,3.9122,3.9119,3.9123,3.9124,3.9118,3.9117,3.9112,3.9112,3.9112,3.9112,0,3.9325,3.9311,3.93,3.928,3.9275,3.9271,3.9253,3.9246,3.9234,3.9223,3.922,3.92,3.9186,3.9169,3.9149,3.914,3.913,3.9125,3.9135,3.9133,3.9133,3.9133,3.9136,3.9136,3.9125,3.9125,3.9125,0,3.9331,3.9327,3.9306,3.93,3.9291,3.9281,3.9273,3.9256,3.9247,3.9228,3.9224,3.9209,3.9196,3.9174,3.9157,3.9142,3.9136,3.9138,3.9133,3.9137,3.9135,3.9135,3.9134,3.9139,3.914,3.914,3.914,0,3.9343,3.9336,3.9325,3.9312,3.9302,3.929,3.9278,3.9273,3.9253,3.9244,3.923,3.922,3.92,3.9185,3.9167,3.9155,3.9143,3.9141,3.914,3.9145,3.915,3.9146,3.9138,3.9141,3.9141,3.9141,3.9141,3.9141,3.9354,3.9349,3.9333,3.9321,3.931,3.9298,3.9291,3.9278,3.9266,3.9249,3.9239,3.9225,3.9207,3.9182,3.9171,3.9158,3.9154,3.9153,3.9152,3.9152,3.9153,3.9153,3.9155,3.9155,3.9155,3.9155,3.9155,0,3.9364,3.9353,3.9343,3.9326,3.9316,3.9307,3.9292,3.9284,3.9272,3.9257,3.9245,3.9227,3.9212,3.9194,3.9177,3.917,3.9164,3.9166,3.9166,3.9163,3.9158,3.9161,3.9171,3.9171,3.9171,3.9171,3.9171,3.9171,3.9368,3.9359,3.935,3.9334,3.9322,3.9309,3.9301,3.929,3.9278,3.926,3.9247,3.9235,3.9218,3.92,3.9184,3.9179,3.9173,3.9176,3.9169,3.9165,3.9164,3.9162,3.9165,3.9176,3.9176,3.9175,3.9175,3.9175]}]]